Location: De Har
(53.3413°N, 6.6858°E)
Time: 08:53:03
(UTC+00:00)

RESURS DK-1 - Pass Details

Date: 22 April 2026
Orbit: 524 x 530 km, 69.9° (Epoch: 15 May)

Event Time Altitude Azimuth Distance (km) Brightness Sun altitude
Rises 02:59:47 0° 329° (NNW) 2,677 5.9 -11.0°
Reaches altitude 10° 03:02:06 10° 338° (NNW) 1,785 5.1 -10.7°
Maximum altitude 03:05:49 37° 47° (NE) 836 4.0 -10.3°
Drops below altitude 10° 03:09:31 10° 116° (ESE) 1,778 5.3 -9.8°
Sets 03:11:49 0° 125° (SE) 2,665 6.1 -9.5°
